Regional Weather Roundup
Issued by NWS Portland, ME

Current Version | Previous Version | Text Only | Print | Product List | Glossary Off
Versions: 1 2 3 4 5 6 7 8 9 10 11 12 13 14 15 16 17 18 19 20 21 22 23 24 25 26 27 28 29 30 31 32 33 34 35 36 37 38 39 40 41 42 43 44 45 46 47 48 49 50
000 ASUS41 KGYX 210010 RWRGYX WEATHER ROUNDUP FOR MAINE AND NEW HAMPSHIRE NATIONAL WEATHER SERVICE GRAY ME 800 PM EDT SAT OCT 20 2018 MEZ002-005-006-010-012-015-018-020-021-024-026-027-029-210100- MAINE CITY SKY/WX TMP DP RH WIND PRES REMARKS PORTLAND FAIR 50 37 61 SW3 29.53R 6HR MIN TEMP: 50; 6HR MAX TEMP: 64; SANFORD FAIR 39 38 96 CALM 29.54S BAR HARBOR FAIR 52 48 86 SW3 29.51R WISCASSET FAIR 44 41 89 CALM 29.53R 6HR MIN TEMP: 44; 6HR MAX TEMP: 63; ROCKLAND FAIR 49 46 90 SW3 29.51S FRYEBURG FAIR 48 31 51 W6 29.53S 6HR MIN TEMP: 44; 6HR MAX TEMP: 63; LEWISTONAUBURN FAIR 52 33 48 CALM 29.52R AUGUSTA FAIR 52 38 58 W6 29.51R 6HR MIN TEMP: 52; 6HR MAX TEMP: 63; WATERVILLE FAIR 46 38 73 CALM 29.48R BANGOR FAIR 51 40 65 NW10G17 29.50R 6HR MIN TEMP: 48; 6HR MAX TEMP: 64; GREENVILLE N/A 47 29 49 W8 29.48R 6HR MIN TEMP: 46; 6HR MAX TEMP: 59; MILLINOCKET FAIR 52 28 39 NW10 29.49R 6HR MIN TEMP: 52; 6HR MAX TEMP: 62; HOULTON FAIR 48 34 58 SW5 29.46R 6HR MIN TEMP: 40; 6HR MAX TEMP: 60; PRESQUE ISLE CLOUDY 50 33 52 CALM 29.46R 6HR MIN TEMP: 49; 6HR MAX TEMP: 60; 6HR PCP: TRACE; FRENCHVILLE FAIR 45 30 55 W14 29.44R 6HR MIN TEMP: 45; 6HR MAX TEMP: 58; 6HR PCP: TRACE; CARIBOU MOCLDY 48 31 51 W5 29.45R 6HR MIN TEMP: 48; 6HR MAX TEMP: 59; 6HR PCP: TRACE; $$ NHZ002-005-008-009-011-012-014-210100- NEW HAMPSHIRE CITY SKY/WX TMP DP RH WIND PRES REMARKS PORTSMOUTH PTCLDY 52 40 64 SW6 29.54R ROCHESTER FAIR 48 42 80 CALM 29.54R 6HR MIN TEMP: 48; 6HR MAX TEMP: 63; NASHUA FAIR 51 44 77 VRB3 29.57R MANCHESTER MOCLDY 52 42 69 CALM 29.55R 6HR MIN TEMP: 52; 6HR MAX TEMP: 63; CONCORD FAIR 42 38 85 E3 29.55R 6HR MIN TEMP: 42; 6HR MAX TEMP: 64; LACONIA FAIR 44 37 76 CALM 29.55R PLYMOUTH FAIR 41 35 78 CALM 29.54S BERLIN FAIR 39 32 76 CALM 29.53R 6HR MIN TEMP: 39; 6HR MAX TEMP: 62; WHITEFIELD FAIR 39 32 76 SE3 29.54R 6HR MIN TEMP: 39; 6HR MAX TEMP: 61; JAFFREY FAIR 42 41 96 CALM 29.58R 6HR MIN TEMP: 42; 6HR MAX TEMP: 57; 6HR PCP: TRACE; KEENE FAIR 46 40 79 CALM 29.58R LEBANON FAIR 45 36 70 S3 29.55S 6HR MIN TEMP: 42; 6HR MAX TEMP: 63; MT WASHINGTON MOCLDY 27 21 80 W38 N/A WCI 9 6HR MIN TEMP: 24; 6HR MAX TEMP: 30; $$ VTZ005-007-008-210100- VERMONT CITY SKY/WX TMP DP RH WIND PRES REMARKS ST JOHNSBURY N/A 45 33 63 MISG 29.54R MONTPELIER FAIR 50 29 44 W12 29.59R BURLINGTON FAIR 54 32 43 W5 29.58R $$ MAZ007-012-024-CTZ003-RIZ002-NYZ038-NYZ072-210100- SOUTHERN NEW ENGLAND AND NY CITY SKY/WX TMP DP RH WIND PRES REMARKS BOSTON FAIR 56 43 61 SW8 29.58R WORCESTER FAIR 45 42 89 W9 29.59R NANTUCKET CLOUDY 58 52 80 W10 29.60S PROVIDENCE FAIR 54 43 66 W5 29.60S HARTFORD FAIR 49 44 83 CALM 29.60S ALBANY LGT RAIN 50 42 74 SW10 29.64R NEW YORK CITY FAIR 61 41 47 SW10 29.61R $$ ANZ081-ANZ082-ANZ150-NHZ014-MEZ023>029-210100- COASTAL MARINE OBSERVATIONS STATION/POSITION TIME TEMP WIND PRES WAVE AIR SEA DIR/SP/G HT/PER (UTC) (F) (DEG/KT/KT) (MB) (FT/S) MOUNT DESERT ROC 0000 54 200/ 16/ 17 999.7R MATINICUS ROCK 2300 55 230/ 16/ 17 999.1R ISLE OF SHOALS 2300 57 240/ 13/ 14 999.8R JEFFREYS LEDGE 2306 55 N/A 3/ 6 $$ .............KEY.............. WCI - WIND CHILL TC - TEMPERATURE IN CELSIUS VSB - VISIBILITY IN MILES HX - HEAT INDEX FAIR- INDICATES FEW OR NO CLOUDS BELOW 12,000 FT, WITH NO SIGNIFICANT WEATHER AND/OR OBSTRUCTIONS TO VISIBILITY.

USA.gov is the U.S. government's official web portal to all federal, state and local government web resources and services.